FENGYUN 1C DEB, 30374

Orbit data source: Space-Track

FENGYUN 1C DEB, 30374 is space debris in SSO originally from a launch on Mon, 10 May 1999 UTC launched from the Taiyaun Space Center, China (TSC). Fengyun 1C debris stems from the Chinese weather satellite Fengyun-1C, which was intentionally destroyed by a Chinese anti-satellite missile in 2007. This event dramatically increased the amount of space debris, with thousands of trackable fragments posing hazards to satellites and human spaceflight. The Fengyun 1C debris cloud has become a focal point in discussions about space sustainability and the need for international regulations to prevent the creation of new debris.

Loading next visibility...
Identifier
30374, 1999-025ACM
Orbit
SSO
Country
Flag of CNCN / PRC
Related business
Manufacturer
Unknown
Mission
Spacecraft
Bus & Motor
Unknown
Mass
Unknown
Launch date (UTC)
1999-05-10 (27 years ago)
Launch vehicle
Unknown
Launch site
Taiyaun Space Center, China (TSC)
Object type
Payload
Rocket body
Debris
Shape & HBR
Unknown shape, 0.1 m
Radar Cross Section
Small (<0.1 m²)

Expand to show TLE details & history
Last TLE update: 7 hours ago

TLE from 7 hours ago
0 FENGYUN 1C DEB
1 30374U 99025ACM 26062.15430895  .00008720  00000-0  17027-2 0  9999
2 30374  99.2698 300.4228 0038995 286.8575 224.7373 14.62731581   967
Epoch: 2026-03-03T03:42Z
TLE epoch observation values (Epoch: 2026-03-03T03:42:12.293Z)
Latitude
28.35535°
Longitude
-91.03957°
Altitude
707.504 km
Speed
7.494 km/s
True Right ascension
08h 21m 47s
True Declination
28° 12' 39"
Sunlit
Object was in full shadow at epoch
Visualization orbit readout
Latitude
Unknown
Longitude
Unknown
Altitude
Unknown
Speed
Unknown
Apparent Right ascension
Unknown
Apparent Declination
Unknown
Sunlit
N/A
Visualization observer readout
Local Sidereal Time
14:43:55
Azimuth
Unknown
Elevation
Unknown
Doppler factor
Unknown
Orbital elements
Apogee altitude
709.027 km
Perigee altitude
653.969 km
Semi-major axis
7,059.635 km
Eccentricity
0.0039
Inclination
99.2698°
RAAN
300.4228°
Arg. of periapsis
286.8575°
True anomaly
224.42387°
Mean anomaly
224.7373°
Eccentric anomaly
224.58048°
Mean motion
3.65906 °/min
Orbital period
98.39 mins
BSTAR
0.0017027
Loading maneuver chart data...
Computing Atmospheric mass density...

Documentation

Showing up to 5 results
|